Location: Montreal
(45.5000°N, 73.5833°W)
Time: 22:49:44
(UTC-05:00)

Vanguard 1 - Pass Details

Date: 27 October 2017
Orbit: 650 x 3834 km, 34.2° (Epoch: 22 November)

Event Time Altitude Azimuth Distance (km) Brightness Sun altitude
Rises 01:13:22 0° 250° (WSW) 4,759 - -56.5°
Reaches altitude 10° 01:16:01 10° 245° (WSW) 4,094 - -56.4°
Maximum altitude 01:27:24 54° 172° (S) 3,021 - -55.7°
Exits shadow 01:37:04 32° 115° (ESE) 4,586 13.2 -55.0°
Drops below altitude 10° 01:46:58 10° 103° (ESE) 6,701 14.3 -54.2°
Sets 01:52:50 0° 100° (E) 7,911 14.9 -53.7°
